STARLINK-37203, 68388

Orbit data source: Space-Track

STARLINK-37203, 68388 is a payload satellite owned by SpaceX/Seattle (US) in SSO that was launched on Thu, 26 Mar 2026 UTC via an FALCON 9 launch vehicle from the Air Force Western Test Range (AFWTR). Payload-class satellites include a variety of spacecraft equipped with specific instruments for various scientific and technological missions. These include communications satellites like Starlink; space stations such as the ISS; scientific satellites like the Hubble; Earth observation satellites from companies like Planet Labs, Umbra, and HawkEye 360; GPS; miniature CubeSats for education and research; and military/defense satellites.

Loading next visibility...
Identifier
68388, 2026-063J
Orbit
SSO
Country
Flag of USUS
Related business
Manufacturer
SpaceX/Seattle
Mission
Operational spacecraft
Bus & Motor
STARLINK V2MO, Unknown motor
Mass
575 kg wet, ~530 kg dry
Launch date (UTC)
2026-03-26 (2 weeks ago)
Launch vehicle
FALCON 9
Launch site
Air Force Western Test Range (AFWTR)
Object type
Payload
Rocket body
Debris
Shape & HBR
Unknown shape, 17.7 m
Radar Cross Section
RCS unknown

Expand to show TLE details & history
Last TLE update: 6 hours ago

TLE from 6 hours ago
0 STARLINK-37203
1 68388U 26063J   26102.31622404  .00200847  00000-0  10225-2 0  9996
2 68388  97.2837 243.7340 0000933  83.1340 277.0034 15.80876144  2939
Epoch: 2026-04-12T07:35Z
TLE epoch observation values (Epoch: 2026-04-12T07:35:21.757Z)
Latitude
-0.00003°
Longitude
-70.62958°
Altitude
331.061 km
Speed
7.71 km/s
True Right ascension
16h 14m 56s
True Declination
0° 00' 00"
Sunlit
Object was in full shadow at epoch
Visualization orbit readout
Latitude
Unknown
Longitude
Unknown
Altitude
Unknown
Speed
Unknown
Apparent Right ascension
Unknown
Apparent Declination
Unknown
Sunlit
N/A
Visualization observer readout
Local Sidereal Time
20:15:51
Azimuth
Unknown
Elevation
Unknown
Doppler factor
Unknown
Orbital elements
Apogee altitude
325.467 km
Perigee altitude
324.216 km
Semi-major axis
6,702.979 km
Eccentricity
0.00009
Inclination
97.2837°
RAAN
243.734°
Arg. of periapsis
83.134°
True anomaly
276.99279°
Mean anomaly
277.0034°
Eccentric anomaly
276.99809°
Mean motion
3.95495 °/min
Orbital period
91.03 mins
BSTAR
0.0010225
Loading maneuver chart data...
Computing Atmospheric mass density...
Loading historical data...
Loading historical data...
Loading historical data...
Loading historical data...
Loading historical data...
Loading historical data...
Loading historical data...

Documentation

Showing up to 5 results
|